Time,TemperatureF,DewpointF,PressureIn,WindDirection,WindDirectionDegrees,WindSpeedMPH,WindSpeedGustMPH,Humidity,HourlyPrecipIn,Conditions,Clouds,dailyrainin,SoftwareType,DateUTC
2013-10-14 00:02:00,39.4,36.4,30.41,West,279,0.0,0.0,89,0.00,CLR,SCT,0.00,WeatherDisplay:10.37,2013-10-14 04:02:00,
2013-10-14 00:17:00,39.2,35.9,30.41,WSW,247,0.0,0.0,88,0.00,CLR,SCT,0.00,WeatherDisplay:10.37,2013-10-14 04:17:00,
2013-10-14 00:32:00,39.2,35.9,30.41,WSW,247,0.0,0.0,88,0.00,CLR,SCT,0.00,WeatherDisplay:10.37,2013-10-14 04:32:00,
2013-10-14 00:47:00,38.7,35.5,30.41,WSW,258,0.0,0.0,88,0.00,CLR,SCT,0.00,WeatherDisplay:10.37,2013-10-14 04:47:00,
2013-10-14 01:02:00,38.1,36.0,30.41,West,260,0.0,0.0,92,0.00,CLR,SCT,0.00,WeatherDisplay:10.37,2013-10-14 05:02:00,
2013-10-14 01:17:00,37.9,35.8,30.41,WSW,245,0.0,0.0,92,0.00,CLR,SCT,0.00,WeatherDisplay:10.37,2013-10-14 05:17:00,
2013-10-14 01:32:00,37.4,35.3,30.40,West,260,0.0,0.0,92,0.00,CLR,SCT,0.00,WeatherDisplay:10.37,2013-10-14 05:32:00,
2013-10-14 01:47:00,37.0,34.9,30.40,West,264,0.0,0.0,92,0.00,CLR,SCT,0.00,WeatherDisplay:10.37,2013-10-14 05:47:00,
2013-10-14 02:02:00,36.9,34.8,30.40,WSW,253,0.0,0.0,92,0.00,CLR,SCT,0.00,WeatherDisplay:10.37,2013-10-14 06:02:00,
2013-10-14 02:17:00,36.5,34.4,30.39,WSW,241,0.0,0.0,92,0.00,CLR,SCT,0.00,WeatherDisplay:10.37,2013-10-14 06:17:00,
2013-10-14 02:32:00,36.1,34.0,30.39,West,266,0.0,0.0,92,0.00,CLR,SCT,0.00,WeatherDisplay:10.37,2013-10-14 06:32:00,
2013-10-14 02:47:00,36.1,34.0,30.39,WSW,253,0.0,0.0,92,0.00,CLR,SCT,0.00,WeatherDisplay:10.37,2013-10-14 06:47:00,
2013-10-14 03:03:00,35.6,33.5,30.38,West,262,0.0,0.0,92,0.00,CLR,SCT,0.00,WeatherDisplay:10.37,2013-10-14 07:03:00,
2013-10-14 03:18:00,35.6,33.5,30.38,WSW,257,0.0,0.0,92,0.00,CLR,SCT,0.00,WeatherDisplay:10.37,2013-10-14 07:18:00,
2013-10-14 03:33:00,35.4,33.3,30.38,WSW,258,0.0,0.0,92,0.00,CLR,SCT,0.00,WeatherDisplay:10.37,2013-10-14 07:33:00,
2013-10-14 03:48:00,35.2,33.1,30.38,West,265,0.0,0.0,92,0.00,CLR,SCT,0.00,WeatherDisplay:10.37,2013-10-14 07:48:00,
2013-10-14 04:03:00,35.2,33.1,30.38,WSW,244,0.0,0.0,92,0.00,CLR,SCT,0.00,WeatherDisplay:10.37,2013-10-14 08:03:00,
2013-10-14 04:18:00,34.9,32.8,30.38,WSW,256,0.0,0.0,92,0.00,CLR,SCT,0.00,WeatherDisplay:10.37,2013-10-14 08:18:00,
2013-10-14 04:33:00,34.9,32.8,30.38,SW,236,0.0,0.0,92,0.00,CLR,SCT,0.00,WeatherDisplay:10.37,2013-10-14 08:33:00,
2013-10-14 04:48:00,34.7,32.6,30.38,SW,224,0.0,0.0,92,0.00,CLR,SCT,0.00,WeatherDisplay:10.37,2013-10-14 08:48:00,
2013-10-14 05:03:00,34.6,33.3,30.38,WSW,245,0.0,0.0,95,0.00,CLR,SCT,0.00,WeatherDisplay:10.37,2013-10-14 09:03:00,
2013-10-14 05:18:00,34.5,33.2,30.37,WSW,243,0.0,0.0,95,0.00,CLR,SCT,0.00,WeatherDisplay:10.37,2013-10-14 09:18:00,
2013-10-14 05:33:00,34.5,33.2,30.38,WSW,237,0.0,0.0,95,0.00,CLR,SCT,0.00,WeatherDisplay:10.37,2013-10-14 09:33:00,
2013-10-14 05:48:00,34.2,32.9,30.38,WSW,248,0.0,0.0,95,0.00,CLR,SCT,0.00,WeatherDisplay:10.37,2013-10-14 09:48:00,
2013-10-14 06:03:00,34.0,31.4,30.38,WSW,250,0.0,0.0,90,0.00,CLR,SCT,0.00,WeatherDisplay:10.37,2013-10-14 10:03:00,
2013-10-14 06:18:00,33.4,30.2,30.38,West,263,0.0,0.0,88,0.00,CLR,SCT,0.00,WeatherDisplay:10.37,2013-10-14 10:18:00,
2013-10-14 06:33:00,33.7,30.5,30.37,WSW,247,0.0,0.0,88,0.00,CLR,SCT,0.00,WeatherDisplay:10.37,2013-10-14 10:33:00,
2013-10-14 06:48:00,33.6,30.4,30.38,WSW,258,0.0,0.0,88,0.00,CLR,SCT,0.00,WeatherDisplay:10.37,2013-10-14 10:48:00,
2013-10-14 07:03:00,33.6,30.4,30.38,South,178,0.0,0.0,88,0.00,CLR,SCT,0.00,WeatherDisplay:10.37,2013-10-14 11:03:00,
2013-10-14 07:18:00,33.3,30.1,30.38,West,264,0.0,0.0,88,0.00,CLR,SCT,0.00,WeatherDisplay:10.37,2013-10-14 11:18:00,
2013-10-14 07:33:00,33.6,30.4,30.38,West,268,0.0,0.0,88,0.00,CLR,SCT,0.00,WeatherDisplay:10.37,2013-10-14 11:33:00,
2013-10-14 07:48:00,34.3,31.2,30.38,West,262,0.0,0.0,88,0.00,CLR,SCT,0.00,WeatherDisplay:10.37,2013-10-14 11:48:00,
2013-10-14 08:03:00,34.9,33.3,30.39,WSW,246,0.0,0.0,94,0.00,CLR,SCT,0.00,WeatherDisplay:10.37,2013-10-14 12:03:00,
2013-10-14 08:18:00,35.4,34.4,30.39,West,268,0.0,0.0,96,0.00,CLR,SCT,0.00,WeatherDisplay:10.37,2013-10-14 12:18:00,
2013-10-14 08:33:00,36.9,35.9,30.39,West,267,0.0,0.0,96,0.00,CLR,SCT,0.00,WeatherDisplay:10.37,2013-10-14 12:33:00,
2013-10-14 08:48:00,38.7,37.7,30.39,West,268,0.0,0.0,96,0.00,CLR,SCT,0.00,WeatherDisplay:10.37,2013-10-14 12:48:00,
2013-10-14 09:03:00,42.5,38.3,30.38,West,267,0.0,0.0,85,0.00,CLR,SCT,0.00,WeatherDisplay:10.37,2013-10-14 13:03:00,
2013-10-14 09:18:00,44.4,39.3,30.38,NW,308,0.0,0.0,82,0.00,CLR,SCT,0.00,WeatherDisplay:10.37,2013-10-14 13:18:00,
2013-10-14 09:33:00,46.6,41.4,30.38,WNW,295,0.0,0.0,82,0.00,CLR,SCT,0.00,WeatherDisplay:10.37,2013-10-14 13:33:00,
2013-10-14 09:48:00,47.7,42.5,30.38,West,271,0.0,0.0,82,0.00,CLR,SCT,0.00,WeatherDisplay:10.37,2013-10-14 13:48:00,
2013-10-14 10:03:00,48.7,41.8,30.38,SW,229,0.0,0.0,77,0.00,CLR,SCT,0.00,WeatherDisplay:10.37,2013-10-14 14:03:00,
2013-10-14 10:17:00,49.5,42.3,30.37,East,80,0.0,3.0,76,0.00,CLR,SCT,0.00,WeatherDisplay:10.37,2013-10-14 14:17:00,
2013-10-14 10:33:00,51.6,44.3,30.37,ENE,67,0.0,3.0,76,0.00,CLR,SCT,0.00,WeatherDisplay:10.37,2013-10-14 14:33:00,
2013-10-14 10:48:00,53.1,45.7,30.36,ENE,71,0.0,0.0,76,0.00,CLR,SCT,0.00,WeatherDisplay:10.37,2013-10-14 14:48:00,
2013-10-14 11:03:00,55.0,44.6,30.36,WSW,258,0.0,3.0,68,0.00,CLR,SCT,0.00,WeatherDisplay:10.37,2013-10-14 15:03:00,
2013-10-14 11:18:00,55.9,44.7,30.35,WNW,294,2.0,5.0,66,0.00,CLR,SCT,0.00,WeatherDisplay:10.37,2013-10-14 15:18:00,
2013-10-14 11:33:00,57.2,45.9,30.35,NNW,344,0.0,5.0,66,0.00,CLR,SCT,0.00,WeatherDisplay:10.37,2013-10-14 15:33:00,
2013-10-14 11:48:00,58.8,47.5,30.34,NE,35,2.0,5.0,66,0.00,CLR,SCT,0.00,WeatherDisplay:10.37,2013-10-14 15:48:00,
2013-10-14 12:03:00,58.8,42.2,30.33,North,351,3.0,5.0,54,0.00,CLR,SCT,0.00,WeatherDisplay:10.37,2013-10-14 16:03:00,
2013-10-14 12:18:00,61.9,43.5,30.33,NNE,32,0.0,5.0,51,0.00,CLR,SCT,0.00,WeatherDisplay:10.37,2013-10-14 16:18:00,
2013-10-14 12:33:00,63.5,45.0,30.32,NW,309,3.0,6.0,51,0.00,CLR,SCT,0.00,WeatherDisplay:10.37,2013-10-14 16:33:00,
2013-10-14 12:47:00,65.1,46.5,30.32,NNE,31,0.0,4.0,51,0.00,CLR,SCT,0.00,WeatherDisplay:10.37,2013-10-14 16:47:00,
2013-10-14 13:03:00,62.9,40.6,30.30,NNE,13,0.0,5.0,44,0.00,CLR,SCT,0.00,WeatherDisplay:10.37,2013-10-14 17:03:00,
2013-10-14 13:17:00,64.2,40.7,30.29,SSE,148,0.0,0.0,42,0.00,CLR,SCT,0.00,WeatherDisplay:10.37,2013-10-14 17:17:00,
2013-10-14 13:33:00,65.5,41.8,30.29,SSE,151,1.0,5.0,42,0.00,CLR,SCT,0.00,WeatherDisplay:10.37,2013-10-14 17:33:00,
2013-10-14 13:47:00,65.5,41.8,30.28,NE,49,2.0,4.0,42,0.00,CLR,SCT,0.00,WeatherDisplay:10.37,2013-10-14 17:47:00,
2013-10-14 14:02:00,66.1,40.4,30.28,North,350,0.0,0.0,39,0.00,CLR,SCT,0.00,WeatherDisplay:10.37,2013-10-14 18:02:00,
2013-10-14 14:17:00,66.7,40.9,30.27,NNE,30,1.0,3.0,39,0.00,CLR,SCT,0.00,WeatherDisplay:10.37,2013-10-14 18:17:00,
2013-10-14 14:32:00,66.1,40.4,30.27,NE,46,2.0,4.0,39,0.00,CLR,SCT,0.00,WeatherDisplay:10.37,2013-10-14 18:32:00,
2013-10-14 14:48:00,66.9,41.1,30.27,NNE,18,0.0,5.0,39,0.00,CLR,SCT,0.00,WeatherDisplay:10.37,2013-10-14 18:48:00,
2013-10-14 15:03:00,67.4,41.6,30.26,NNE,32,2.0,5.0,39,0.00,CLR,SCT,0.00,WeatherDisplay:10.37,2013-10-14 19:03:00,
2013-10-14 15:18:00,66.9,41.2,30.26,NE,40,0.0,4.0,39,0.00,CLR,SCT,0.00,WeatherDisplay:10.37,2013-10-14 19:18:00,
2013-10-14 15:33:00,67.6,41.7,30.26,NNE,21,2.0,5.0,39,0.00,CLR,SCT,0.00,WeatherDisplay:10.37,2013-10-14 19:33:00,
2013-10-14 15:47:00,66.6,40.9,30.25,NE,43,0.0,3.0,39,0.00,CLR,SCT,0.00,WeatherDisplay:10.37,2013-10-14 19:47:00,
2013-10-14 16:03:00,67.4,40.2,30.25,NE,37,3.0,4.0,37,0.00,CLR,SCT,0.00,WeatherDisplay:10.37,2013-10-14 20:03:00,
2013-10-14 16:17:00,68.0,40.7,30.24,East,85,0.0,4.0,37,0.00,CLR,SCT,0.00,WeatherDisplay:10.37,2013-10-14 20:17:00,
2013-10-14 16:32:00,66.7,39.5,30.24,NNE,31,0.0,1.0,37,0.00,CLR,SCT,0.00,WeatherDisplay:10.37,2013-10-14 20:32:00,
2013-10-14 16:47:00,65.3,38.3,30.25,NNE,16,2.0,5.0,37,0.00,CLR,SCT,0.00,WeatherDisplay:10.37,2013-10-14 20:47:00,
2013-10-14 17:02:00,64.4,36.1,30.25,ENE,61,0.0,4.0,35,0.00,CLR,SCT,0.00,WeatherDisplay:10.37,2013-10-14 21:02:00,
2013-10-14 17:17:00,63.5,35.3,30.25,ENE,72,0.0,4.0,35,0.00,CLR,SCT,0.00,WeatherDisplay:10.37,2013-10-14 21:17:00,
2013-10-14 17:32:00,62.6,34.5,30.25,NNE,15,0.0,2.0,35,0.00,CLR,SCT,0.00,WeatherDisplay:10.37,2013-10-14 21:32:00,
2013-10-14 17:48:00,61.3,33.4,30.25,East,86,0.0,0.0,35,0.00,CLR,SCT,0.00,WeatherDisplay:10.37,2013-10-14 21:48:00,
2013-10-14 18:03:00,59.7,35.3,30.26,SE,141,0.0,0.0,40,0.00,FEW,SCT,0.00,WeatherDisplay:10.37,2013-10-14 22:03:00,
2013-10-14 18:17:00,58.5,35.5,30.26,South,170,0.0,0.0,42,0.00,FEW,SCT,0.00,WeatherDisplay:10.37,2013-10-14 22:17:00,
2013-10-14 18:32:00,57.0,34.1,30.26,South,184,0.0,0.0,42,0.00,FEW,SCT,0.00,WeatherDisplay:10.37,2013-10-14 22:32:00,
2013-10-14 18:47:00,55.9,33.1,30.26,South,187,0.0,0.0,42,0.00,FEW,SCT,0.00,WeatherDisplay:10.37,2013-10-14 22:47:00,
2013-10-14 19:02:00,54.9,37.6,30.27,SSW,212,0.0,0.0,52,0.00,FEW,SCT,0.00,WeatherDisplay:10.37,2013-10-14 23:02:00,
2013-10-14 19:17:00,54.1,38.3,30.27,WSW,252,0.0,0.0,55,0.00,FEW,SCT,0.00,WeatherDisplay:10.37,2013-10-14 23:17:00,
2013-10-14 19:32:00,53.4,37.6,30.27,WSW,238,0.0,0.0,55,0.00,FEW,SCT,0.00,WeatherDisplay:10.37,2013-10-14 23:32:00,
2013-10-14 19:47:00,52.7,37.0,30.28,SW,230,0.0,0.0,55,0.00,FEW,SCT,0.00,WeatherDisplay:10.37,2013-10-14 23:47:00,
2013-10-14 20:02:00,52.2,41.6,30.28,WSW,239,0.0,0.0,67,0.00,CLR,SCT,0.00,WeatherDisplay:10.37,2013-10-15 00:02:00,
2013-10-14 20:17:00,51.8,42.7,30.28,SW,221,0.0,0.0,71,0.00,CLR,SCT,0.00,WeatherDisplay:10.37,2013-10-15 00:17:00,
2013-10-14 20:32:00,51.3,42.2,30.27,ESE,118,0.0,0.0,71,0.00,CLR,SCT,0.00,WeatherDisplay:10.37,2013-10-15 00:32:00,
2013-10-14 20:47:00,50.5,41.4,30.27,WSW,241,0.0,0.0,71,0.00,CLR,SCT,0.00,WeatherDisplay:10.37,2013-10-15 00:47:00,
2013-10-14 21:02:00,50.2,43.3,30.27,NNE,13,0.0,0.0,77,0.00,CLR,SCT,0.00,WeatherDisplay:10.37,2013-10-15 01:02:00,
2013-10-14 21:17:00,49.8,43.5,30.27,SW,214,0.0,0.0,79,0.00,CLR,SCT,0.00,WeatherDisplay:10.37,2013-10-15 01:17:00,
2013-10-14 21:32:00,49.3,43.1,30.27,SW,227,0.0,0.0,79,0.00,CLR,SCT,0.00,WeatherDisplay:10.37,2013-10-15 01:32:00,
2013-10-14 21:47:00,49.1,42.9,30.27,WSW,247,0.0,0.0,79,0.00,CLR,SCT,0.00,WeatherDisplay:10.37,2013-10-15 01:47:00,
2013-10-14 22:02:00,49.1,42.9,30.27,NW,305,0.0,0.0,79,0.00,SCT,SCT,0.00,WeatherDisplay:10.37,2013-10-15 02:02:00,
2013-10-14 22:17:00,49.1,42.9,30.26,West,261,0.0,0.0,79,0.00,SCT,SCT,0.00,WeatherDisplay:10.37,2013-10-15 02:17:00,
2013-10-14 22:32:00,49.5,43.3,30.27,WSW,243,0.0,0.0,79,0.00,SCT,SCT,0.00,WeatherDisplay:10.37,2013-10-15 02:32:00,
2013-10-14 22:47:00,49.6,43.4,30.27,WSW,240,0.0,0.0,79,0.00,SCT,SCT,0.00,WeatherDisplay:10.37,2013-10-15 02:47:00,
2013-10-14 23:02:00,50.0,44.7,30.26,WNW,282,0.0,0.0,82,0.00,OVC,SCT,0.00,WeatherDisplay:10.37,2013-10-15 03:02:00,
2013-10-14 23:17:00,50.2,44.9,30.27,North,355,0.0,0.0,82,0.00,OVC,SCT,0.00,WeatherDisplay:10.37,2013-10-15 03:17:00,
2013-10-14 23:32:00,50.5,45.2,30.26,NNE,23,0.0,0.0,82,0.00,OVC,SCT,0.00,WeatherDisplay:10.37,2013-10-15 03:32:00,
2013-10-14 23:47:00,50.7,45.4,30.26,West,259,0.0,0.0,82,0.00,OVC,SCT,0.00,WeatherDisplay:10.37,2013-10-15 03:47:00,